Wind_Speed
47 45 44 42 40 39 38 35 34 33 31 30 28 25 23 20 21 24 26 27 26 26 25 23 22 20 23 32 37 30 21 19 18 22 27 28 27 30 31 26 26 24 19 18 18 15 12 16 18 18 18 13 12 13 11 11 10 8 5 7 8 8 7 5 7 6 1 0 7 11 15 14 9 11 11 9 11 8 9 15 15 15 18 15 9 8 9 15
47 46 44 43 42 41 39 36 35 34 33 31 29 27 24 21 21 22 25 26 27 27 25 23 21 20 20 25 35 36 28 23 19 24 30 27 25 29 31 29 28 22 17 20 20 16 12 15 19 19 17 13 11 11 10 10 10 9 5 7 9 7 4 4 7 8 4 2 7 12 15 15 9 12 13 9 10 10 9 12 15 15 16 19 15 11 9 14
48 47 45 44 43 42 39 38 36 35 34 33 31 29 26 23 21 21 23 25 27 26 24 23 21 19 18 20 29 34 34 28 25 35 36 28 25 28 28 29 31 23 14 17 19 18 14 15 19 18 16 13 12 11 10 9 10 9 6 8 8 4 2 5 9 9 10 4 4 10 13 13 8 10 14 10 8 10 12 12 13 16 18 20 19 15 12 13
47 47 47 46 45 43 41 40 39 37 35 34 33 30 28 26 23 22 23 24 26 26 25 23 21 19 16 16 22 30 32 23 31 48 40 29 26 24 24 25 30 27 16 13 17 18 15 16 19 17 15 13 12 12 11 11 10 6 8 10 4 3 3 8 13 11 12 8 3 7 10 11 9 10 13 10 7 8 15 17 16 18 19 21 22 20 16 14
46 47 47 47 46 44 43 42 41 38 37 35 34 32 30 27 25 23 23 25 26 27 27 23 20 18 15 14 17 24 23 11 28 52 44 32 29 23 22 19 21 26 21 15 15 17 15 16 17 12 10 12 11 10 12 14 12 6 12 15 3 4 6 7 12 13 12 9 4 7 8 10 10 12 14 13 10 8 12 18 20 19 17 17 20 22 21 18
45 47 48 48 47 46 44 43 41 39 37 36 35 33 31 29 26 24 24 25 26 27 26 24 21 18 16 15 15 19 23 11 12 34 46 41 33 26 24 20 18 20 22 21 16 15 14 14 16 12 9 11 12 11 11 15 14 8 12 14 8 8 7 4 10 13 12 9 7 8 8 9 11 11 14 17 17 10 9 13 14 17 18 16 16 20 23 22
45 47 48 48 49 49 45 45 43 40 38 37 36 35 33 30 28 25 25 26 26 27 27 25 21 18 17 16 15 18 27 26 8 9 29 39 38 33 28 25 22 19 22 24 18 14 13 15 19 16 13 10 11 14 12 14 15 11 11 9 9 11 9 6 8 12 12 11 9 8 8 10 13 10 11 20 24 17 12 11 10 12 15 16 16 18 20 21
46 47 48 50 50 49 46 46 45 42 40 38 36 35 33 31 29 27 26 27 27 26 26 26 22 19 19 18 19 19 27 38 24 9 11 21 31 33 32 32 30 27 26 24 20 17 15 21 24 18 13 10 11 14 13 12 13 14 12 6 6 9 9 8 8 11 11 12 10 8 9 11 14 9 8 20 26 24 20 13 10 12 12 14 17 18 19 20
46 46 47 50 51 49 47 46 45 43 41 39 36 35 34 33 31 28 27 28 28 26 26 26 23 20 20 21 20 17 28 37 25 15 12 16 26 31 35 37 36 35 31 27 23 18 15 22 24 16 10 10 10 12 16 13 10 16 16 5 5 7 9 10 9 10 10 11 9 9 10 9 12 10 10 21 25 24 24 18 14 14 13 14 14 17 19 21
46 46 46 48 50 48 47 47 45 44 42 40 38 36 35 33 32 30 28 29 29 27 25 25 23 22 22 24 20 12 24 30 18 13 15 18 24 29 35 37 38 36 32 30 25 19 17 19 21 16 7 7 9 9 15 14 6 15 17 4 4 5 7 9 8 9 10 9 10 11 9 6 8 9 10 15 20 23 25 23 22 19 18 18 16 16 18 20
46 46 47 47 49 49 48 48 47 44 42 41 39 37 35 35 34 32 30 30 31 27 25 25 25 26 24 25 24 14 14 21 19 14 13 17 22 24 27 29 31 32 32 30 23 21 20 15 16 16 4 2 6 5 8 13 6 9 13 5 4 4 4 8 7 8 9 6 11 11 6 3 5 8 11 9 10 19 24 24 26 24 24 23 22 19 18 20
45 46 47 47 49 50 50 49 48 46 43 42 41 38 36 36 35 33 31 31 31 27 25 25 26 27 25 26 29 21 9 11 19 18 15 16 19 21 23 24 25 28 30 27 17 10 13 13 13 14 4 3 4 1 5 13 9 6 11 8 6 5 6 9 7 8 10 5 9 8 5 8 9 10 16 16 11 13 20 24 25 25 24 23 23 22 20 20
44 46 46 48 49 50 51 50 50 47 45 43 41 39 37 36 35 34 33 32 31 27 25 25 26 26 23 24 29 26 13 5 14 23 21 19 16 16 18 20 20 20 21 20 14 8 4 8 9 9 4 2 2 1 4 8 8 6 7 6 5 6 9 11 8 7 9 6 10 9 6 12 13 14 20 24 19 14 16 21 23 24 24 24 23 23 22 21
44 46 47 48 49 50 50 50 50 48 46 44 41 40 37 36 35 35 34 32 30 26 25 24 25 25 23 23 25 28 22 7 11 25 29 29 23 15 15 18 18 17 14 12 10 6 5 3 6 10 6 5 3 2 1 3 4 5 4 4 7 9 7 10 9 9 9 7 11 10 8 10 7 14 23 26 23 18 16 17 20 23 24 24 24 24 24 23
44 46 48 49 49 50 50 50 50 48 47 45 42 40 38 37 36 35 34 32 29 26 25 24 24 22 18 20 22 25 27 18 15 23 28 34 34 24 18 18 16 14 13 9 7 6 5 6 6 9 6 7 5 3 1 2 0 3 5 5 10 10 6 7 8 13 11 6 11 10 8 10 5 8 18 22 23 20 18 18 18 21 23 23 24 24 25 25
44 45 48 49 50 50 50 50 49 49 48 45 44 41 39 40 37 35 33 30 27 25 25 24 26 23 11 13 20 23 28 28 23 21 25 30 34 31 23 19 16 13 11 8 6 7 8 9 7 4 4 4 3 2 3 3 1 4 7 8 11 11 9 6 7 13 11 4 10 12 8 8 5 5 11 16 21 19 18 19 18 21 24 26 25 26 26 26
44 46 48 49 51 52 52 52 51 51 50 47 45 43 42 40 37 35 31 27 26 26 28 25 24 22 11 9 17 24 30 32 29 22 23 29 31 33 30 22 17 14 12 11 10 11 12 11 7 2 3 2 3 2 4 6 6 7 8 8 10 13 13 9 5 8 9 5 9 13 11 13 7 4 8 11 14 15 16 19 19 21 25 30 30 30 30 29
45 46 48 49 50 52 53 53 53 53 51 49 46 44 42 36 33 33 29 29 28 24 23 21 19 13 12 20 22 27 34 32 33 29 24 29 31 32 34 26 20 18 17 15 11 12 12 9 7 1 3 3 4 5 9 10 9 12 13 9 6 11 16 16 7 6 10 9 11 12 14 19 15 7 7 9 11 13 16 19 20 21 23 27 30 33 34 33
45 46 48 48 49 51 52 53 54 52 50 48 46 42 38 34 32 31 31 33 29 21 15 21 29 12 5 28 33 26 31 28 31 36 30 31 30 29 31 28 24 22 16 10 8 12 13 9 7 4 6 8 10 10 10 4 4 12 16 11 7 9 14 13 5 5 9 9 11 14 14 16 17 13 11 11 12 13 14 16 17 20 22 24 28 32 34 35
45 44 47 47 49 52 52 53 53 52 51 48 46 41 33 28 20 17 29 35 36 32 20 25 42 19 7 17 34 23 23 26 29 38 37 34 32 28 28 27 25 21 13 7 8 14 15 7 5 9 10 11 13 14 11 6 7 7 13 11 10 11 11 8 4 4 6 8 10 13 15 18 17 14 16 18 15 13 14 16 18 21 22 24 28 30 32 33
44 43 46 47 49 53 53 54 52 53 54 51 51 43 34 32 19 18 33 32 39 45 26 21 37 24 3 7 30 27 19 23 29 35 36 36 34 26 24 27 20 13 13 12 12 13 13 6 9 13 12 12 11 12 11 10 9 6 11 10 11 13 10 5 4 4 5 6 9 11 13 19 18 14 16 19 16 17 19 21 23 24 22 23 27 31 33 33
43 43 46 48 50 53 53 54 54 55 55 52 54 45 41 47 34 34 40 21 29 43 25 16 26 29 11 4 18 29 18 16 25 30 33 36 35 25 22 24 15 10 13 15 13 10 8 8 13 15 12 9 8 10 12 11 10 8 8 9 10 11 6 3 3 3 5 5 6 7 9 15 17 15 16 17 16 22 26 26 28 27 24 25 28 33 38 39
44 44 46 48 51 53 53 55 55 56 56 53 55 48 46 52 37 34 35 12 14 32 24 16 18 28 25 4 11 29 22 16 20 28 35 37 35 28 24 21 14 11 12 12 12 11 8 11 15 16 13 9 8 11 13 11 9 8 7 10 9 9 8 5 4 5 5 4 3 4 7 12 15 13 14 17 21 26 29 28 29 27 26 30 32 35 39 41
45 45 47 49 52 52 53 55 54 57 59 55 56 50 47 50 37 30 27 7 3 19 27 26 15 18 27 15 10 23 23 17 17 28 38 40 35 28 23 20 15 11 12 15 15 14 11 9 16 18 13 13 12 11 13 11 9 9 9 11 8 10 9 3 5 6 3 4 3 4 7 10 14 14 13 15 20 25 27 25 26 26 30 37 37 39 41 42
45 46 47 50 53 53 54 55 56 59 58 54 53 47 46 47 36 29 22 4 2 9 17 23 15 13 24 21 13 15 15 14 18 27 38 44 39 25 17 17 14 9 13 18 15 12 11 12 22 17 13 15 13 11 13 11 9 10 10 10 7 11 8 6 8 7 3 6 6 5 8 8 9 13 11 8 11 17 20 20 21 24 29 33 35 41 45 43
44 45 47 51 53 55 55 54 59 61 53 50 49 44 46 45 33 27 18 2 2 8 8 17 18 16 23 23 20 14 7 11 19 26 37 44 40 27 15 11 8 8 13 14 9 6 7 13 19 15 14 16 13 11 13 11 9 8 5 7 5 10 9 9 10 7 6 6 3 5 9 8 7 10 10 7 7 12 15 13 18 22 24 25 31 40 45 45
44 44 46 51 54 58 56 50 56 59 51 48 45 40 42 41 31 25 14 2 4 9 9 14 15 16 22 23 24 17 3 9 18 23 34 40 36 27 16 10 8 9 11 8 6 5 7 13 14 14 15 12 11 11 12 12 10 7 4 4 5 9 10 11 9 8 6 2 0 5 6 7 9 8 7 8 8 13 15 13 15 19 22 24 28 36 40 42
44 44 46 51 54 60 57 51 57 58 52 49 46 40 38 36 31 21 9 1 4 8 7 11 12 14 21 21 25 19 4 10 13 19 33 38 32 21 12 14 13 12 17 12 9 9 12 16 15 15 14 9 12 12 11 14 10 5 4 5 5 7 8 8 8 7 1 2 6 7 5 6 10 5 3 6 10 14 16 17 18 17 19 25 30 34 35 36
44 44 46 50 54 59 56 54 59 55 50 50 47 42 38 37 30 14 5 3 4 5 6 13 13 14 19 18 23 24 11 7 4 13 29 33 30 18 7 15 16 13 19 15 8 5 8 17 20 16 11 10 12 10 11 15 10 4 3 3 4 4 5 4 4 3 3 3 11 8 9 8 10 8 6 5 7 13 15 15 15 15 17 23 30 32 32 33
44 45 46 50 55 57 51 49 55 51 48 51 49 45 41 35 23 10 7 5 3 5 8 14 15 17 21 15 15 21 16 8 4 12 25 26 28 20 6 12 14 11 14 10 4 1 1 14 20 12 7 8 10 12 16 17 10 6 3 4 6 4 4 3 0 2 2 6 8 10 14 10 10 10 9 7 8 12 14 12 11 12 15 20 26 29 30 31
43 46 47 52 57 57 49 46 50 51 50 50 50 47 36 21 10 9 9 3 3 6 8 11 14 17 22 16 12 17 16 11 7 10 16 15 19 16 6 6 7 7 9 7 5 2 2 8 10 6 7 9 8 9 12 13 12 9 3 4 5 2 2 2 2 3 7 9 5 9 15 14 13 8 5 5 6 7 10 11 10 9 11 15 20 23 25 27
43 45 49 55 59 58 53 50 52 53 50 51 52 43 22 8 6 8 6 5 4 7 7 12 14 15 21 18 13 16 15 12 11 9 9 7 9 11 9 8 7 7 8 9 7 5 2 4 5 5 10 14 11 6 4 5 10 9 4 6 5 2 3 4 4 4 9 6 1 3 11 13 14 11 9 8 6 7 9 10 11 9 9 12 12 12 14 17
44 45 50 58 59 56 53 52 55 54 51 54 51 31 11 4 7 9 8 5 5 7 10 14 17 18 21 18 12 15 14 11 13 12 9 8 8 10 10 11 14 11 8 11 11 8 5 4 6 6 7 13 14 8 6 5 8 10 8 9 8 4 5 8 7 5 7 4 2 2 5 7 9 8 13 16 14 14 14 14 17 16 15 15 12 10 10 13
44 47 54 60 58 55 53 53 56 55 55 55 39 17 8 7 7 11 11 6 1 7 12 14 17 19 19 17 13 15 13 10 13 13 9 7 6 9 10 11 16 12 5 8 8 9 10 8 11 11 9 15 15 12 12 10 11 13 10 9 9 5 5 7 7 8 6 1 2 4 4 6 5 0 3 8 10 14 16 17 19 21 22 21 20 20 19 18
43 50 57 56 52 52 54 55 57 58 58 47 21 8 10 8 7 10 10 6 2 6 13 16 18 17 15 14 14 17 13 10 14 14 10 9 5 7 11 11 15 11 7 8 5 6 9 5 8 12 10 18 19 14 14 12 9 9 7 8 9 6 3 2 1 3 2 0 3 5 4 5 3 6 8 7 7 9 13 14 15 18 21 21 23 26 28 28
48 56 55 50 51 52 54 56 57 59 57 35 11 8 11 7 7 10 10 8 5 9 16 16 15 14 13 12 12 18 13 6 12 12 9 11 9 7 9 9 14 14 10 11 6 6 8 5 10 13 7 16 22 17 16 14 8 6 8 9 5 2 3 3 1 2 1 6 5 7 8 7 4 11 13 12 14 13 13 12 11 13 15 16 21 24 25 27
54 57 47 45 53 54 56 60 59 59 51 24 8 11 10 6 6 8 10 8 4 11 15 11 10 11 13 12 11 17 14 6 11 10 6 9 8 8 9 7 13 18 13 11 5 3 6 3 9 17 15 20 26 22 17 16 9 5 9 9 3 0 2 2 4 2 3 8 5 8 12 9 6 7 5 7 14 17 17 12 7 7 10 13 17 18 16 16
53 52 41 44 55 56 59 60 59 56 38 14 8 10 7 5 4 7 14 9 5 12 11 5 8 9 12 14 12 16 17 10 11 11 8 7 6 10 12 7 11 18 15 9 4 3 5 1 3 14 16 13 15 16 12 11 6 2 7 9 6 3 3 3 5 5 6 9 6 7 9 8 10 8 3 6 8 8 11 9 6 6 8 10 15 17 14 10
49 41 32 44 57 57 60 60 56 46 23 9 10 8 6 6 2 7 19 14 6 11 11 6 6 7 10 14 13 16 18 15 13 11 9 7 5 12 19 12 9 16 18 10 3 4 6 4 3 7 9 9 7 8 8 9 7 5 5 6 2 2 4 5 5 4 5 8 8 5 4 5 10 10 10 15 12 5 5 5 7 8 8 11 16 18 16 13
42 23 19 47 59 56 61 59 45 29 12 8 10 5 7 8 1 4 18 18 7 6 9 8 6 6 10 13 13 14 15 15 14 10 8 10 9 10 18 16 9 13 20 14 5 5 4 4 4 3 5 8 6 8 11 14 12 7 7 8 5 2 1 3 5 3 4 7 8 7 6 6 5 10 15 19 16 12 9 6 7 8 9 13 15 18 18 16
34 11 15 53 60 56 60 42 21 12 5 6 7 4 6 7 3 3 9 13 7 2 4 7 7 7 8 11 12 13 12 12 13 10 6 10 11 8 14 21 15 12 15 11 7 7 5 4 5 5 6 9 9 12 16 18 17 12 10 11 10 8 4 4 7 5 3 5 5 5 8 6 4 7 12 13 12 14 12 8 7 8 10 15 16 16 16 16
24 6 22 56 60 58 50 19 6 8 4 6 7 5 6 8 8 6 4 7 5 1 3 5 6 6 7 8 11 13 12 11 13 11 8 11 12 8 15 28 28 20 14 10 9 6 1 3 6 4 5 6 5 5 8 13 16 9 5 7 9 9 8 8 9 7 5 5 2 3 7 4 4 6 8 7 7 10 9 6 6 7 12 17 16 13 13 14
16 13 36 59 61 59 37 7 6 8 3 5 8 5 6 6 8 7 5 6 3 1 4 4 3 5 6 6 9 13 13 10 13 13 11 13 12 9 16 27 28 23 14 8 7 4 1 3 6 4 2 1 2 2 1 5 11 6 3 5 7 10 12 8 4 3 6 7 5 5 9 5 3 3 3 3 3 7 9 10 10 12 16 17 13 10 11 13
23 29 42 53 59 54 27 5 10 10 5 9 9 5 4 3 7 9 8 9 4 3 6 5 2 3 3 3 6 14 14 9 11 14 11 9 7 6 17 27 24 18 13 11 10 10 6 6 7 6 5 3 2 3 2 3 7 7 8 10 11 15 13 5 0 1 5 11 10 8 10 6 2 1 1 1 2 3 6 9 13 15 17 15 10 8 10 11
25 24 31 45 52 41 15 5 12 11 9 12 10 9 7 2 3 9 12 9 4 3 5 3 2 4 3 2 3 10 14 10 8 10 11 8 4 3 13 26 23 13 15 18 16 12 7 5 8 9 8 8 9 10 10 9 9 8 11 15 16 19 18 10 5 5 7 10 11 11 11 2 3 1 2 1 2 4 4 6 11 15 15 12 8 8 9 9
15 8 14 27 35 28 9 5 11 9 8 13 10 9 11 6 2 4 9 7 2 3 3 2 2 4 3 3 3 5 12 12 7 5 8 9 4 2 12 24 22 17 20 19 13 9 2 3 9 11 9 8 6 6 8 12 13 12 15 21 20 20 21 14 6 7 11 9 9 14 12 3 1 4 5 4 3 5 7 8 12 16 16 12 9 8 8 8
9 6 9 11 14 15 8 5 10 8 10 15 10 8 13 12 5 4 5 4 5 6 3 3 2 5 6 8 6 3 7 12 8 5 9 10 3 2 13 21 19 24 27 17 11 9 1 3 10 13 13 6 2 3 8 12 15 17 19 23 21 18 19 16 12 14 13 8 10 16 12 7 8 7 7 7 7 6 7 10 16 22 22 17 12 8 7 8
5 8 15 18 12 8 8 10 11 10 13 15 9 9 16 16 10 8 4 2 5 8 5 1 4 8 10 12 9 3 4 9 11 7 7 9 6 5 10 12 13 22 23 15 12 9 2 5 9 12 16 10 1 3 11 13 13 15 16 19 19 18 19 20 20 20 14 8 15 18 10 11 16 12 10 9 8 8 10 16 22 24 22 19 14 10 10 8
7 7 14 19 11 6 10 12 10 11 14 12 7 9 17 19 17 11 5 4 5 8 10 9 9 10 11 11 10 7 5 8 11 8 6 9 9 7 7 6 8 14 15 10 11 9 4 7 10 10 15 14 5 2 8 13 13 12 13 16 17 19 22 22 20 20 15 12 19 20 12 16 19 12 10 10 11 14 14 13 14 13 13 16 14 11 10 7
10 10 12 11 5 7 12 11 10 11 10 10 9 8 12 18 19 13 7 7 9 10 12 16 15 12 10 10 10 10 10 10 8 5 6 10 9 7 7 5 6 10 11 7 6 8 8 8 9 8 9 12 10 5 5 11 13 13 14 15 15 16 19 19 17 17 14 16 25 22 16 18 14 6 7 10 14 17 15 13 11 10 11 13 12 11 9 8
12 14 20 14 6 8 13 10 11 11 9 10 12 10 12 16 18 13 6 6 9 9 12 16 13 9 7 9 12 11 12 15 12 8 8 9 8 9 7 5 8 10 10 6 2 4 7 5 6 7 6 10 14 12 9 8 8 11 14 15 16 16 17 18 18 17 15 19 24 20 17 16 8 6 8 10 12 11 11 16 16 12 13 12 11 13 14 13
15 16 25 19 7 8 13 10 11 12 10 10 11 11 13 14 15 14 7 6 6 5 9 13 10 7 5 10 15 11 7 13 18 15 12 8 4 8 8 9 14 14 10 8 3 2 5 4 4 7 8 11 14 15 11 4 3 7 12 16 20 21 20 19 18 19 20 19 17 15 14 8 5 8 12 13 13 11 12 18 17 13 17 20 19 18 17 17
Wind_Direction
236 230 228 228 225 222 219 219 219 218 219 219 224 226 221 224 222 212 211 211 210 216 220 219 216 216 217 213 209 206 203 204 208 210 213 218 220 223 228 225 226 235 238 227 217 219 221 215 215 215 218 221 226 232 234 238 231 218 222 233 236 233 220 188 192 193 235 256 171 181 188 194 191 186 195 202 206 211 210 211 217 219 218 224 219 211 204 199
236 230 228 228 224 221 219 218 217 216 217 217 219 222 218 219 222 214 212 213 212 214 220 222 218 215 216 214 211 207 207 211 217 220 213 210 215 220 226 225 223 229 229 225 220 214 217 216 212 212 212 211 220 223 223 222 213 215 221 234 237 237 207 177 206 202 214 257 175 185 192 201 201 178 185 198 198 198 208 214 219 225 222 224 221 209 200 198
236 231 229 228 225 222 220 217 217 216 216 215 216 218 216 215 218 217 213 213 213 212 216 223 221 216 214 214 211 207 211 221 234 231 215 200 206 218 224 224 224 229 229 223 221 213 211 217 212 208 206 207 213 209 212 207 205 218 220 237 238 216 160 191 212 208 214 225 160 187 193 206 213 176 185 204 195 194 215 215 210 223 225 222 220 212 203 199
236 233 230 229 227 224 221 217 216 215 214 214 214 216 215 213 214 217 215 213 212 210 213 219 219 217 214 211 210 208 210 226 240 231 218 200 199 208 218 224 224 228 239 232 225 216 208 219 213 199 200 205 203 200 207 201 197 201 211 237 243 159 222 215 208 214 217 218 185 177 183 208 216 190 191 198 195 206 224 222 213 219 223 221 220 215 211 207
235 233 231 229 226 223 222 219 216 213 212 212 213 214 214 211 211 214 216 213 211 210 213 217 216 215 212 208 209 203 200 227 243 232 223 206 198 198 208 221 225 228 239 246 237 220 213 223 211 192 204 204 189 198 210 203 197 199 224 238 248 171 226 221 208 219 216 210 194 167 179 203 202 202 203 201 212 222 223 225 226 226 225 225 225 220 219 220
235 233 230 229 225 222 222 220 216 211 210 211 212 213 213 211 209 211 215 214 211 211 214 217 215 212 206 206 208 191 188 208 254 237 229 219 208 202 206 216 226 232 236 245 248 225 222 221 203 194 216 212 193 199 205 199 200 218 233 231 225 207 224 234 211 217 209 196 191 184 193 193 189 210 212 211 224 233 229 229 232 232 231 232 231 226 225 226
236 233 229 227 226 224 222 220 217 212 210 209 210 212 211 210 209 210 214 214 212 211 214 216 214 212 205 200 204 192 202 220 236 242 231 228 222 213 213 218 223 231 230 240 249 235 223 202 189 187 203 216 201 203 199 193 200 224 237 217 211 213 219 233 211 212 207 201 205 197 201 195 197 214 213 218 227 232 236 235 229 225 225 226 228 229 229 231
235 233 229 227 225 223 220 220 218 213 211 208 208 210 210 209 209 209 212 214 213 211 212 215 212 210 207 195 195 197 215 225 223 236 234 222 222 216 216 219 223 231 231 241 252 244 223 196 187 181 198 211 193 196 191 191 202 222 237 209 193 208 211 224 214 213 211 212 217 203 208 208 205 212 220 226 228 229 231 233 223 212 208 214 221 225 228 231
234 232 229 227 224 221 218 218 216 213 210 207 207 207 208 209 208 209 211 213 213 211 210 212 210 208 210 200 191 204 226 225 217 233 237 207 209 213 219 223 226 230 231 241 247 242 221 200 193 183 202 208 192 193 187 197 207 212 227 209 175 201 202 210 210 212 213 212 211 204 216 220 210 215 242 237 231 230 229 226 220 212 212 216 222 227 230 232
233 231 228 226 224 221 218 217 214 213 211 207 206 205 206 207 207 208 210 212 213 212 209 209 208 206 208 201 191 210 236 228 207 207 217 206 206 211 219 226 228 228 229 233 235 231 216 203 197 190 201 204 201 203 190 200 207 201 213 205 181 197 192 201 204 207 209 213 208 210 224 221 203 212 240 237 230 231 229 227 225 223 228 233 237 238 235 235
231 230 228 225 223 220 217 217 214 213 211 206 204 204 204 206 207 207 208 210 211 211 209 207 206 207 208 201 197 211 238 227 205 185 181 196 209 214 217 219 222 223 221 217 217 223 215 194 187 188 205 282 209 222 211 209 211 192 192 184 188 183 194 201 200 197 196 217 209 212 246 224 185 209 228 231 226 227 225 228 230 231 237 241 244 243 240 237
230 229 227 224 222 219 216 216 215 211 207 205 204 203 204 205 205 206 207 208 211 210 208 207 206 209 211 207 208 211 221 220 200 181 163 180 204 213 216 214 213 214 209 199 185 201 210 187 176 177 181 320 192 203 264 220 211 185 180 198 195 185 225 202 192 195 195 216 192 192 260 233 210 212 226 234 236 223 219 226 230 232 236 239 241 239 238 238
229 228 226 223 221 218 215 214 212 208 205 204 203 201 203 204 203 205 207 206 209 207 205 207 206 209 211 215 218 211 205 211 194 189 181 179 177 176 185 183 181 184 182 178 156 114 154 188 184 179 184 312 174 175 272 208 192 173 186 229 200 207 234 196 179 186 194 205 171 176 250 239 221 209 220 233 235 225 216 222 228 231 234 235 237 236 235 236
227 226 224 222 220 218 214 212 209 207 205 204 202 200 201 202 203 205 206 206 206 203 202 205 206 206 211 223 228 215 208 198 183 198 203 205 199 175 165 161 159 167 173 183 182 140 81 86 192 205 236 281 264 279 253 151 166 163 171 248 217 224 222 176 171 176 188 195 170 183 247 253 226 197 213 229 229 223 220 222 226 230 232 233 235 235 235 236
225 224 222 220 219 216 213 211 209 206 203 202 200 198 198 200 201 203 204 204 203 199 197 203 206 202 212 231 232 220 214 207 193 201 209 213 212 198 177 176 177 184 199 202 195 176 95 72 164 196 263 278 269 286 154 106 30 178 178 209 217 223 206 169 178 189 196 185 174 192 240 252 252 189 207 222 224 221 224 228 227 231 234 235 237 237 238 238
223 221 219 218 216 214 212 210 208 205 201 200 197 196 197 199 199 200 202 200 198 195 192 199 205 200 208 231 224 221 216 212 204 201 208 213 213 201 184 184 184 182 197 184 159 164 128 109 143 183 295 279 244 222 154 133 182 213 214 213 207 209 211 195 181 198 206 165 185 211 244 250 249 202 203 216 219 217 226 233 231 233 238 239 240 240 240 240
221 219 217 216 214 212 209 207 206 202 199 196 194 194 196 196 196 196 195 192 190 189 193 200 200 201 222 228 216 220 217 212 204 197 204 210 212 208 198 189 177 168 166 145 136 147 135 120 130 197 293 269 242 211 174 189 198 203 214 220 208 200 209 209 175 190 201 196 208 216 239 251 248 205 206 221 221 214 226 236 236 237 239 241 241 241 241 241
220 218 216 215 214 211 206 205 204 201 197 192 189 193 195 191 191 188 182 181 179 178 192 200 188 189 231 223 212 213 214 212 204 198 199 202 209 212 205 193 176 165 147 136 142 145 136 120 122 151 288 238 235 214 195 198 202 202 201 205 200 195 209 214 194 162 183 210 226 215 230 247 248 226 207 228 231 219 227 237 239 241 240 241 242 243 244 243
218 216 214 213 212 210 206 204 203 201 196 189 187 190 189 181 179 180 176 174 170 170 185 188 185 180 245 216 208 207 213 212 204 201 198 197 200 203 202 197 184 172 150 142 163 150 133 115 128 188 230 218 220 220 210 207 236 213 201 197 187 191 211 215 194 147 182 207 224 223 235 247 245 234 219 226 229 225 234 242 244 245 244 244 245 246 247 247
215 213 212 212 211 209 205 202 202 199 193 187 183 183 178 167 161 171 176 178 181 186 190 186 190 195 16 207 203 200 205 207 203 201 201 201 195 187 187 186 178 174 171 162 158 153 142 125 176 202 213 217 224 233 240 299 311 213 188 194 192 197 211 207 173 139 185 215 224 226 242 251 248 240 231 229 231 231 236 244 247 244 244 245 246 247 247 247
214 210 209 210 209 207 204 199 198 197 191 186 182 179 173 166 161 175 176 184 196 194 193 193 196 201 55 170 198 196 188 198 202 198 201 201 191 182 176 175 169 174 180 147 132 150 150 163 209 203 207 217 229 246 258 285 291 221 182 186 193 205 210 188 167 144 163 220 240 230 242 255 252 246 239 231 233 241 239 241 245 244 243 245 248 249 249 249
212 208 207 208 206 204 202 198 196 194 188 184 181 180 180 179 180 184 176 178 202 197 197 198 200 203 190 102 191 196 185 187 197 194 195 192 185 180 174 176 179 180 169 142 133 151 165 204 210 196 197 208 227 247 257 269 271 246 197 185 196 198 185 142 139 134 163 211 248 241 249 263 260 253 246 230 229 246 245 240 244 244 243 245 248 251 253 256
210 207 206 206 205 202 201 198 195 191 185 182 182 183 186 186 188 186 174 152 191 199 205 200 199 203 204 213 179 190 193 188 188 186 187 185 181 182 177 180 192 179 164 162 162 165 190 213 195 182 183 194 214 226 241 257 261 258 214 194 194 167 168 198 173 149 179 215 283 293 271 271 269 261 247 226 223 243 248 242 243 242 242 247 249 253 256 258
209 207 206 205 202 199 198 195 190 187 185 184 184 187 187 187 190 184 170 121 135 198 209 204 199 201 206 217 184 186 196 197 190 182 181 180 179 181 182 186 193 181 174 182 179 185 209 187 161 169 178 190 206 212 224 236 243 259 241 213 184 156 172 168 128 144 176 229 261 294 279 269 263 258 251 226 216 236 246 241 241 238 242 250 251 253 256 256
209 206 206 204 200 197 195 189 185 185 185 183 183 185 187 185 186 181 165 108 70 178 207 208 209 213 204 208 207 196 199 207 205 187 179 179 177 176 182 189 190 185 186 186 183 204 218 154 146 163 176 187 202 211 215 218 227 247 252 241 194 154 155 115 126 151 208 236 205 219 259 265 254 248 249 228 205 230 241 236 238 237 239 245 245 249 252 253
206 205 204 202 199 195 189 183 184 185 180 181 183 182 186 184 180 175 159 83 234 159 174 194 202 213 202 205 207 194 202 223 216 198 183 181 181 175 171 180 190 192 183 180 186 221 208 151 147 159 170 181 196 213 216 210 223 236 240 249 207 145 143 142 152 177 231 247 176 189 244 267 267 252 245 233 207 234 241 231 236 238 236 237 239 247 250 251
203 202 200 200 197 190 184 178 180 180 176 181 183 178 182 180 171 167 153 21 234 158 144 172 187 200 199 201 192 179 187 197 203 210 194 186 185 182 176 171 180 187 162 154 201 207 172 161 154 160 168 176 192 210 212 202 217 236 195 204 183 147 151 153 164 204 232 281 120 192 231 270 270 259 247 238 231 246 251 242 237 234 231 234 241 248 252 252
201 199 198 197 193 187 183 177 175 177 179 181 178 172 173 170 163 161 160 214 177 141 138 166 173 184 190 192 184 188 208 152 179 215 200 193 191 186 189 183 174 169 161 165 199 188 170 169 160 163 171 180 198 202 193 193 215 251 212 194 171 147 147 152 183 218 245 319 250 205 175 251 264 252 206 214 231 246 249 245 243 233 228 237 245 250 254 256
199 197 197 195 191 187 184 180 175 176 180 177 170 165 159 157 157 155 182 201 136 121 145 162 163 166 171 173 184 202 215 160 186 207 192 196 196 187 200 193 176 160 171 186 197 177 176 175 165 164 175 192 200 184 171 191 211 237 214 139 89 83 92 121 196 198 99 249 247 202 170 229 268 260 224 189 215 239 244 246 245 236 228 237 246 250 253 256
197 195 195 192 187 183 181 177 174 175 176 170 163 159 151 151 156 161 195 200 124 134 141 152 161 163 162 161 183 202 206 198 212 182 182 193 194 191 202 191 178 157 176 200 202 333 34 164 165 171 191 189 177 166 179 196 183 154 186 112 77 44 65 77 96 128 179 242 234 188 178 215 265 261 232 205 207 228 240 247 245 235 231 238 247 249 250 253
197 194 192 187 182 179 173 166 170 175 172 165 159 155 148 145 164 185 179 142 99 141 138 152 160 159 164 168 182 192 199 204 192 171 181 187 187 189 170 169 177 155 174 193 197 267 33 144 162 177 178 158 146 164 183 188 162 146 185 144 114 73 93 112 120 157 230 241 214 185 182 204 241 249 223 215 213 223 242 251 250 236 229 242 251 253 254 255
195 193 190 183 179 179 172 165 169 173 167 161 158 155 146 135 182 195 159 115 149 162 153 165 161 157 170 180 183 183 192 200 187 183 193 181 183 192 177 169 169 158 172 178 187 218 198 157 169 159 161 157 155 166 160 160 164 163 170 153 157 174 154 191 188 187 233 231 84 185 188 204 239 251 247 245 238 235 240 246 252 250 240 246 251 251 252 248
193 188 184 181 180 178 173 169 169 167 161 158 157 153 150 161 178 183 166 154 171 159 158 167 166 165 172 181 185 179 189 199 186 189 199 186 189 202 200 184 176 179 179 172 179 190 191 204 188 164 158 166 167 169 166 164 172 177 176 173 179 171 171 203 206 215 239 228 73 138 183 226 251 252 244 242 243 243 242 242 248 251 250 250 250 246 240 232
191 183 178 179 180 177 174 170 165 162 158 155 153 151 165 176 175 177 177 182 161 146 156 162 167 171 175 184 183 170 182 202 190 191 199 196 195 196 203 197 188 191 166 164 181 182 190 208 194 183 165 168 179 188 179 169 176 185 184 186 192 182 188 204 204 218 228 185 137 159 173 219 212 116 256 239 250 256 255 256 256 256 255 257 259 258 255 248
187 179 175 175 175 175 174 168 162 160 156 151 149 160 170 175 173 178 182 180 165 155 160 160 164 174 184 189 181 172 183 198 189 194 200 200 210 188 188 194 196 195 154 161 185 180 207 240 183 182 167 165 181 193 178 165 176 189 181 195 209 201 190 184 204 231 206 175 199 187 230 240 229 319 296 250 255 259 254 255 253 254 256 257 259 258 259 258
178 173 172 169 168 171 172 165 160 159 155 150 154 174 178 192 171 176 180 164 162 161 159 163 166 175 188 191 184 180 189 198 185 198 212 206 212 196 188 189 191 198 179 167 167 167 203 226 165 170 175 181 186 182 173 172 171 180 191 200 213 203 190 193 202 61 51 261 225 182 239 262 275 289 274 244 246 245 238 235 229 238 250 254 258 259 260 258
170 168 166 163 164 168 168 163 159 158 156 152 170 177 185 199 160 165 165 141 141 160 156 164 171 176 182 187 192 180 178 186 180 190 215 209 208 189 196 210 193 200 197 174 174 187 191 193 164 172 183 193 190 180 179 187 174 163 195 184 136 6 262 230 227 194 209 254 234 183 224 236 218 254 261 223 236 239 235 223 194 217 237 244 259 268 267 263
164 162 159 158 162 164 164 162 158 156 156 155 182 183 180 179 157 162 163 148 139 161 162 168 170 181 180 181 193 178 171 177 175 182 200 205 209 176 179 213 206 206 208 181 169 209 187 135 178 190 187 178 178 177 187 207 210 239 208 176 148 196 201 177 217 219 211 240 249 202 215 226 215 217 218 217 222 235 239 223 193 211 220 234 258 266 263 270
158 155 154 157 161 163 161 160 157 154 155 167 184 184 171 177 190 163 166 163 144 160 175 185 171 186 186 183 186 174 175 182 172 176 193 192 203 177 173 187 207 207 209 204 180 174 185 188 187 201 181 147 157 186 190 200 223 273 234 186 169 224 191 178 202 217 212 238 260 234 202 227 215 198 219 239 240 241 243 219 220 227 226 247 261 255 250 271
152 143 149 158 162 164 160 157 156 155 159 177 175 168 166 177 166 146 168 167 158 167 179 186 178 176 185 189 187 176 181 191 179 177 191 182 184 182 173 176 196 203 199 207 220 169 176 213 189 157 151 153 175 198 191 188 191 203 200 187 187 216 208 195 203 216 222 230 247 251 248 242 199 177 208 231 238 235 229 213 219 226 233 250 255 248 256 281
147 124 148 159 162 162 156 152 153 157 166 172 169 159 160 165 131 117 170 164 158 181 172 178 182 177 183 188 186 180 182 194 190 186 195 189 194 200 174 171 180 192 188 199 218 191 183 208 186 155 166 184 195 198 199 196 189 189 194 188 187 187 175 192 202 202 225 233 236 259 267 254 167 172 205 219 225 227 226 221 218 219 233 249 253 253 269 289
143 111 151 159 162 158 152 145 141 159 179 170 165 155 141 153 159 154 160 146 124 81 148 170 181 181 189 189 188 187 184 191 193 191 199 204 211 213 177 174 175 174 181 195 197 189 171 160 165 162 181 193 198 204 211 202 193 193 206 199 194 188 180 196 209 196 193 226 247 281 278 261 151 171 202 205 212 224 231 235 241 251 254 257 263 268 278 285
127 125 151 160 163 157 151 137 141 160 214 149 144 141 125 143 162 154 158 163 136 86 163 173 178 185 197 194 190 190 190 195 197 198 200 204 216 207 177 177 174 169 181 200 186 195 281 154 158 158 171 125 41 23 359 192 187 188 225 208 198 202 203 204 208 178 191 211 203 228 257 248 143 165 206 209 217 222 227 228 233 248 253 256 268 279 274 270
118 127 146 159 164 159 153 148 158 168 183 151 148 156 131 130 163 165 177 178 163 163 174 170 164 190 196 184 193 192 189 194 201 205 206 201 213 188 173 180 178 172 184 187 181 194 201 177 165 162 167 159 138 163 155 177 185 191 202 197 198 208 209 211 116 156 216 214 199 218 247 239 137 95 89 2 307 252 237 234 230 238 250 259 269 272 265 265
124 128 141 156 163 164 160 158 167 171 166 160 169 171 157 130 168 182 185 172 126 144 175 165 157 179 162 121 223 198 190 198 203 202 208 204 193 150 170 179 180 183 194 192 189 191 194 193 179 173 177 179 188 195 185 180 185 194 197 193 198 202 199 200 204 195 220 217 201 219 239 230 73 107 179 154 286 281 271 245 234 240 252 260 257 254 260 265
134 131 139 151 163 171 174 146 162 166 157 164 173 173 172 171 130 171 181 175 139 134 126 60 145 170 147 149 238 216 197 207 208 187 198 198 185 146 171 176 180 190 197 201 197 181 193 239 195 197 206 191 193 200 172 170 179 187 193 192 196 200 198 200 204 208 222 220 212 226 234 232 114 191 207 201 205 241 247 233 236 243 249 252 247 250 261 260
138 140 145 146 158 173 184 165 164 165 163 170 173 168 178 180 147 132 177 194 186 164 115 43 161 187 174 170 193 234 208 206 206 196 192 187 170 123 170 177 185 190 192 197 188 165 152 252 206 216 223 211 49 106 149 167 185 190 192 192 193 193 194 201 212 220 220 218 238 238 231 241 240 203 199 215 207 220 234 226 232 238 239 239 234 235 246 254
128 137 156 158 153 169 188 181 176 171 165 169 168 162 178 185 174 168 179 163 177 184 181 167 195 200 188 172 171 194 223 211 208 205 190 182 168 141 169 186 195 192 189 188 182 177 224 227 209 223 223 217 3 142 169 178 196 200 194 191 189 186 192 203 215 223 214 203 240 241 214 230 243 218 196 207 203 208 221 223 227 231 229 219 210 220 238 247
111 116 151 159 158 168 167 157 158 168 167 168 169 167 179 187 186 180 155 121 173 200 204 204 199 192 187 176 169 174 191 207 210 203 182 181 177 158 164 185 198 197 195 192 186 186 209 220 209 217 224 222 221 189 182 183 194 204 198 193 187 187 197 207 216 226 220 217 244 249 235 239 245 221 191 197 207 219 235 240 231 224 217 206 201 214 225 230
138 146 151 144 125 149 152 145 152 167 168 173 185 182 182 190 191 180 151 156 179 186 201 210 199 180 176 178 187 199 197 203 228 238 191 184 178 170 174 174 172 186 198 212 202 187 201 219 200 195 226 229 218 219 210 194 194 194 195 196 189 189 203 214 225 230 219 227 244 248 244 247 245 202 176 194 208 221 240 251 234 218 217 210 207 222 236 255
160 165 159 142 95 140 156 156 167 174 174 183 191 185 185 194 190 177 172 202 197 184 198 205 190 164 168 185 201 212 200 201 221 240 227 218 195 181 188 172 153 163 187 214 219 184 201 210 180 180 219 229 215 212 213 213 211 202 196 190 183 190 203 212 222 222 208 221 239 242 246 251 234 166 185 205 210 216 235 240 233 234 242 236 231 241 253 264
157 153 160 154 111 142 163 162 173 184 186 191 193 181 184 193 182 172 186 218 221 214 194 182 160 145 177 201 206 208 195 205 216 215 219 240 222 186 188 174 164 163 176 189 179 204 214 202 176 184 209 227 218 207 203 217 264 222 201 187 185 194 204 210 220 222 212 218 230 233 239 239 159 171 202 211 214 219 234 237 234 238 249 251 247 242 247 253
Height
1460 1462 1465 1467 1469 1472 1475 1477 1480 1482 1485 1487 1489 1491 1493 1495 1497 1499 1500 1502 1504 1506 1508 1511 1513 1514 1515 1517 1520 1522 1524 1525 1525 1526 1525 1527 1530 1531 1532 1536 1539 1540 1542 1544 1545 1546 1548 1549 1550 1552 1554 1555 1556 1556 1557 1558 1559 1560 1559 1559 1556 1551 1550 1549 1549 1551 1550 1549 1551 1552 1553 1553 1554 1556 1557 1558 1559 1559 1559 1559 1559 1559 1559 1560 1560 1560 1560 1561
1455 1458 1461 1463 1466 1469 1472 1474 1477 1479 1482 1484 1486 1488 1491 1493 1495 1497 1499 1501 1502 1504 1507 1509 1512 1513 1514 1515 1517 1521 1522 1523 1524 1521 1520 1525 1528 1528 1530 1535 1538 1539 1541 1543 1544 1545 1547 1548 1549 1551 1552 1554 1554 1555 1556 1556 1558 1557 1556 1556 1551 1546 1546 1546 1547 1548 1549 1549 1549 1551 1552 1552 1553 1554 1556 1557 1557 1558 1558 1557 1558 1558 1558 1559 1559 1560 1560 1560
1451 1454 1457 1460 1463 1465 1468 1471 1474 1477 1479 1482 1484 1486 1489 1491 1494 1496 1497 1499 1500 1503 1505 1508 1510 1512 1513 1514 1515 1519 1520 1522 1519 1513 1516 1523 1525 1526 1529 1532 1536 1538 1540 1542 1542 1543 1545 1547 1548 1550 1551 1552 1553 1554 1555 1555 1556 1555 1555 1554 1547 1544 1545 1546 1547 1548 1548 1549 1549 1551 1552 1552 1553 1554 1555 1555 1555 1556 1555 1554 1556 1556 1556 1557 1558 1558 1559 1559
1446 1448 1451 1455 1459 1462 1465 1468 1471 1474 1477 1480 1482 1484 1486 1489 1491 1494 1496 1497 1499 1501 1503 1506 1509 1511 1512 1512 1515 1516 1520 1522 1511 1504 1513 1519 1522 1524 1526 1529 1533 1537 1539 1540 1541 1542 1543 1546 1547 1548 1550 1550 1551 1553 1553 1553 1553 1554 1553 1549 1545 1544 1545 1546 1547 1547 1548 1549 1550 1551 1552 1553 1552 1553 1554 1554 1554 1554 1552 1552 1552 1553 1553 1555 1556 1557 1558 1558
1441 1444 1447 1451 1455 1458 1461 1465 1467 1470 1474 1477 1480 1482 1484 1486 1489 1492 1494 1496 1498 1500 1502 1505 1508 1510 1511 1512 1514 1514 1522 1522 1503 1500 1512 1516 1518 1521 1524 1527 1530 1534 1538 1539 1540 1541 1542 1544 1545 1547 1549 1548 1549 1551 1550 1551 1551 1552 1549 1545 1545 1546 1545 1545 1546 1547 1547 1549 1550 1551 1551 1551 1552 1552 1552 1552 1551 1549 1549 1549 1550 1551 1552 1553 1554 1555 1556 1556
1437 1439 1443 1447 1451 1454 1458 1461 1464 1468 1471 1474 1477 1480 1482 1484 1487 1490 1492 1494 1496 1498 1501 1503 1506 1509 1510 1511 1513 1514 1518 1512 1498 1500 1508 1512 1517 1519 1521 1524 1527 1531 1535 1538 1540 1540 1540 1542 1544 1547 1548 1546 1546 1547 1547 1549 1551 1550 1546 1544 1545 1546 1545 1545 1546 1546 1547 1549 1549 1550 1550 1550 1551 1551 1550 1550 1548 1546 1547 1548 1549 1550 1551 1552 1553 1554 1554 1555
1433 1435 1439 1443 1447 1450 1454 1458 1461 1464 1467 1471 1474 1477 1480 1482 1485 1487 1490 1493 1495 1497 1499 1502 1505 1507 1509 1511 1512 1513 1511 1502 1498 1501 1504 1509 1515 1517 1519 1521 1524 1529 1533 1536 1539 1539 1539 1540 1542 1545 1547 1545 1544 1544 1545 1547 1549 1548 1544 1543 1544 1545 1546 1546 1546 1546 1547 1548 1548 1549 1549 1549 1550 1549 1549 1548 1545 1546 1547 1547 1549 1549 1550 1551 1551 1552 1553 1553
1428 1431 1434 1438 1442 1445 1450 1454 1457 1461 1465 1468 1472 1475 1478 1481 1483 1485 1488 1491 1493 1496 1498 1500 1504 1506 1508 1509 1509 1511 1505 1497 1500 1503 1504 1508 1511 1515 1517 1518 1522 1526 1530 1534 1536 1539 1539 1538 1540 1543 1544 1543 1542 1542 1544 1546 1548 1547 1543 1542 1544 1545 1545 1546 1546 1546 1546 1547 1547 1548 1548 1548 1548 1548 1547 1544 1543 1545 1546 1547 1548 1548 1548 1549 1550 1550 1551 1552
1424 1427 1430 1435 1438 1442 1446 1450 1454 1458 1462 1465 1469 1472 1476 1479 1481 1483 1486 1489 1492 1495 1497 1499 1502 1504 1506 1507 1508 1507 1497 1495 1502 1504 1505 1507 1509 1512 1514 1515 1519 1522 1528 1532 1534 1537 1538 1538 1539 1541 1542 1541 1541 1540 1542 1544 1544 1542 1542 1542 1543 1544 1545 1545 1546 1546 1546 1546 1546 1547 1547 1547 1547 1548 1545 1541 1542 1544 1544 1546 1546 1547 1547 1547 1548 1549 1549 1550
1419 1423 1426 1430 1435 1439 1443 1447 1451 1454 1458 1462 1466 1470 1474 1477 1480 1481 1484 1487 1490 1493 1495 1498 1500 1503 1504 1504 1507 1503 1493 1496 1504 1504 1505 1507 1508 1510 1511 1512 1515 1519 1525 1529 1532 1534 1537 1537 1538 1540 1541 1540 1540 1540 1540 1541 1539 1539 1541 1542 1543 1544 1544 1545 1545 1545 1546 1546 1546 1545 1545 1545 1547 1548 1542 1538 1540 1542 1543 1544 1544 1545 1546 1546 1547 1547 1548 1548
1414 1418 1421 1425 1430 1435 1439 1443 1447 1451 1455 1459 1463 1467 1471 1475 1477 1479 1482 1485 1488 1492 1494 1496 1499 1500 1501 1502 1503 1499 1494 1498 1502 1503 1505 1507 1508 1509 1509 1510 1513 1517 1521 1526 1529 1532 1534 1535 1537 1540 1542 1542 1540 1540 1539 1539 1539 1539 1541 1542 1543 1544 1544 1544 1544 1545 1545 1545 1545 1545 1545 1545 1547 1545 1539 1537 1539 1539 1540 1541 1542 1543 1543 1544 1544 1545 1546 1546
1409 1413 1416 1420 1425 1429 1434 1439 1443 1448 1452 1456 1460 1464 1468 1472 1475 1477 1480 1483 1487 1490 1493 1495 1497 1498 1500 1500 1498 1497 1497 1498 1501 1504 1506 1506 1508 1508 1509 1510 1512 1515 1518 1523 1526 1530 1535 1536 1537 1540 1542 1543 1541 1541 1540 1539 1540 1540 1540 1542 1542 1543 1542 1542 1543 1543 1544 1543 1544 1546 1546 1543 1541 1539 1537 1537 1538 1538 1539 1539 1540 1541 1541 1542 1542 1543 1544 1544
1404 1408 1412 1416 1420 1425 1430 1434 1439 1444 1449 1453 1457 1461 1466 1469 1472 1475 1478 1481 1485 1489 1492 1493 1495 1497 1499 1497 1494 1497 1499 1498 1501 1504 1505 1507 1508 1509 1510 1510 1512 1516 1518 1521 1524 1530 1536 1537 1537 1539 1541 1542 1542 1542 1541 1539 1540 1541 1541 1541 1542 1544 1541 1538 1541 1543 1543 1543 1542 1546 1545 1535 1530 1532 1535 1536 1536 1537 1538 1537 1538 1538 1539 1540 1540 1540 1541 1542
1399 1403 1408 1412 1416 1421 1426 1430 1436 1441 1445 1450 1454 1459 1463 1466 1470 1473 1476 1479 1483 1487 1491 1493 1494 1496 1497 1494 1492 1496 1498 1499 1500 1501 1503 1506 1507 1509 1511 1510 1513 1517 1519 1521 1524 1530 1535 1535 1537 1539 1541 1542 1542 1542 1541 1541 1542 1541 1545 1544 1541 1543 1539 1535 1539 1541 1541 1542 1541 1545 1543 1530 1524 1528 1532 1533 1534 1536 1536 1536 1536 1536 1536 1537 1537 1538 1538 1539
1394 1399 1403 1407 1412 1418 1422 1427 1432 1437 1442 1447 1452 1456 1460 1464 1468 1471 1474 1477 1481 1486 1489 1492 1492 1495 1496 1492 1491 1495 1496 1498 1498 1499 1501 1503 1506 1509 1510 1511 1513 1515 1518 1521 1523 1529 1533 1534 1537 1541 1542 1542 1543 1544 1543 1543 1543 1542 1546 1546 1540 1540 1537 1534 1537 1538 1538 1540 1540 1543 1540 1530 1525 1527 1528 1530 1531 1533 1534 1534 1534 1534 1534 1535 1535 1535 1536 1536
1390 1394 1398 1403 1408 1413 1418 1424 1429 1434 1439 1444 1450 1455 1459 1462 1466 1469 1472 1476 1480 1484 1488 1489 1490 1492 1493 1490 1490 1492 1492 1494 1496 1499 1501 1502 1505 1508 1510 1512 1513 1515 1518 1521 1523 1528 1531 1533 1538 1542 1543 1543 1543 1544 1544 1546 1547 1544 1542 1541 1538 1538 1537 1534 1535 1535 1535 1538 1539 1540 1535 1528 1526 1526 1527 1529 1529 1531 1532 1531 1532 1532 1532 1532 1533 1533 1533 1533
1385 1389 1393 1398 1403 1408 1414 1420 1425 1429 1435 1441 1447 1452 1456 1460 1464 1467 1471 1475 1479 1482 1485 1486 1488 1492 1490 1487 1487 1486 1487 1490 1495 1498 1500 1502 1504 1506 1508 1511 1513 1515 1517 1522 1524 1526 1529 1532 1538 1543 1543 1543 1543 1543 1546 1548 1547 1543 1538 1536 1534 1533 1534 1533 1534 1534 1535 1536 1536 1537 1533 1526 1525 1525 1526 1527 1528 1530 1530 1529 1529 1529 1529 1529 1529 1529 1529 1530
1380 1384 1389 1394 1399 1405 1409 1415 1420 1425 1431 1438 1444 1450 1454 1460 1464 1466 1468 1472 1477 1481 1485 1486 1488 1492 1487 1480 1480 1481 1482 1487 1491 1495 1498 1500 1502 1504 1507 1510 1513 1514 1517 1522 1524 1524 1528 1531 1538 1544 1545 1544 1543 1542 1541 1538 1535 1535 1534 1535 1535 1532 1530 1530 1531 1532 1534 1536 1535 1535 1532 1526 1523 1524 1525 1527 1527 1528 1527 1527 1527 1526 1526 1526 1526 1526 1525 1526
1375 1380 1385 1390 1395 1401 1406 1411 1417 1422 1429 1436 1442 1449 1454 1458 1462 1465 1466 1468 1471 1474 1477 1476 1477 1479 1473 1469 1474 1478 1481 1485 1488 1492 1495 1497 1500 1504 1506 1509 1512 1513 1517 1520 1522 1523 1524 1531 1541 1546 1545 1542 1539 1537 1532 1528 1527 1528 1528 1531 1534 1533 1530 1528 1528 1530 1532 1535 1535 1533 1530 1524 1522 1523 1523 1525 1525 1526 1525 1524 1524 1524 1523 1523 1522 1522 1522 1522
1370 1375 1381 1386 1391 1397 1401 1407 1413 1419 1426 1433 1439 1444 1449 1452 1458 1463 1465 1464 1462 1462 1464 1464 1465 1468 1466 1467 1473 1478 1480 1483 1485 1487 1490 1493 1497 1501 1504 1507 1510 1512 1514 1515 1518 1520 1522 1531 1540 1540 1540 1538 1536 1534 1531 1528 1528 1528 1527 1529 1530 1530 1529 1528 1529 1530 1531 1533 1532 1530 1528 1522 1520 1521 1520 1522 1523 1522 1523 1522 1521 1520 1520 1519 1519 1518 1518 1518
1366 1371 1376 1382 1387 1393 1397 1402 1409 1415 1421 1427 1432 1435 1438 1441 1445 1449 1455 1460 1459 1459 1463 1464 1465 1468 1468 1468 1471 1474 1477 1480 1482 1484 1487 1492 1495 1499 1502 1503 1506 1508 1509 1511 1514 1518 1522 1528 1532 1531 1533 1536 1536 1536 1534 1533 1532 1529 1526 1527 1528 1527 1526 1527 1529 1530 1532 1533 1529 1527 1528 1521 1517 1518 1517 1519 1521 1518 1518 1518 1517 1516 1517 1517 1516 1515 1515 1515
1362 1367 1372 1379 1383 1389 1394 1399 1405 1412 1417 1423 1427 1429 1431 1433 1435 1436 1442 1451 1456 1459 1463 1464 1466 1468 1469 1469 1470 1474 1477 1478 1480 1482 1485 1490 1492 1495 1498 1499 1501 1502 1505 1508 1511 1519 1524 1523 1522 1524 1529 1535 1537 1537 1537 1536 1535 1532 1525 1524 1525 1523 1525 1529 1530 1530 1532 1534 1529 1527 1528 1521 1513 1514 1514 1515 1517 1514 1513 1513 1512 1512 1513 1513 1512 1511 1512 1512
1358 1362 1369 1374 1379 1385 1391 1396 1403 1409 1414 1418 1421 1423 1427 1432 1436 1439 1443 1449 1455 1460 1462 1463 1464 1466 1468 1470 1470 1473 1475 1475 1477 1479 1482 1487 1489 1491 1493 1495 1497 1499 1502 1503 1506 1516 1519 1513 1513 1521 1527 1533 1536 1537 1538 1539 1537 1533 1526 1521 1520 1521 1524 1528 1530 1531 1532 1532 1531 1531 1530 1520 1511 1510 1509 1510 1512 1509 1507 1508 1507 1508 1508 1507 1507 1507 1507 1507
1354 1359 1365 1370 1376 1381 1386 1394 1402 1406 1408 1413 1417 1421 1425 1432 1437 1441 1445 1450 1455 1458 1459 1461 1464 1465 1467 1469 1470 1472 1473 1474 1475 1476 1479 1482 1485 1489 1491 1492 1494 1498 1500 1500 1501 1507 1506 1503 1508 1519 1525 1530 1534 1536 1538 1540 1539 1535 1527 1519 1516 1519 1521 1523 1527 1531 1532 1533 1533 1534 1533 1519 1507 1507 1504 1502 1506 1504 1502 1503 1502 1502 1502 1501 1502 1502 1502 1502
1350 1356 1361 1367 1373 1376 1385 1394 1397 1401 1406 1412 1417 1421 1427 1432 1437 1441 1445 1451 1454 1456 1459 1462 1464 1464 1465 1469 1470 1471 1474 1474 1473 1474 1476 1478 1481 1485 1488 1491 1493 1497 1499 1499 1502 1504 1501 1501 1507 1517 1522 1526 1531 1533 1534 1537 1538 1535 1527 1519 1515 1515 1519 1524 1527 1529 1533 1534 1530 1533 1535 1518 1500 1500 1499 1497 1501 1500 1497 1497 1496 1496 1496 1496 1496 1496 1495 1496
1347 1352 1357 1364 1369 1373 1383 1387 1389 1398 1405 1412 1415 1420 1427 1431 1438 1442 1445 1453 1454 1453 1458 1460 1461 1461 1461 1466 1468 1472 1477 1473 1471 1473 1474 1476 1479 1481 1486 1490 1492 1495 1496 1499 1504 1503 1500 1501 1504 1513 1519 1524 1529 1530 1529 1531 1537 1535 1526 1519 1515 1513 1518 1523 1525 1527 1530 1530 1528 1531 1533 1520 1503 1496 1495 1495 1498 1496 1492 1492 1491 1490 1490 1490 1490 1490 1490 1491
1344 1349 1353 1360 1364 1370 1377 1380 1387 1396 1401 1407 1412 1419 1426 1430 1439 1441 1446 1462 1458 1447 1453 1457 1457 1456 1457 1462 1465 1470 1473 1469 1469 1472 1471 1475 1478 1479 1484 1487 1489 1492 1493 1501 1507 1500 1497 1501 1504 1509 1515 1521 1525 1525 1523 1527 1533 1530 1522 1519 1516 1513 1517 1521 1523 1526 1525 1526 1530 1530 1531 1529 1515 1498 1492 1493 1496 1494 1490 1488 1485 1484 1485 1485 1485 1485 1485 1486
1340 1345 1349 1355 1361 1367 1372 1375 1383 1391 1395 1402 1410 1419 1425 1430 1439 1439 1448 1468 1457 1439 1446 1452 1453 1454 1456 1461 1464 1465 1465 1463 1466 1468 1469 1474 1476 1478 1481 1480 1482 1485 1487 1495 1499 1492 1490 1496 1500 1504 1511 1516 1516 1515 1518 1525 1529 1525 1521 1520 1516 1513 1516 1518 1521 1525 1527 1531 1531 1526 1530 1534 1518 1496 1492 1494 1494 1492 1486 1481 1478 1477 1479 1479 1480 1480 1480 1481
1337 1343 1346 1353 1362 1368 1372 1373 1378 1386 1394 1401 1409 1418 1424 1430 1438 1438 1449 1460 1444 1433 1442 1446 1450 1454 1455 1459 1463 1463 1462 1463 1464 1464 1468 1474 1474 1476 1478 1477 1478 1482 1485 1486 1489 1489 1486 1488 1492 1498 1504 1506 1505 1509 1516 1522 1524 1523 1521 1520 1517 1517 1518 1521 1523 1526 1535 1538 1529 1522 1526 1529 1513 1491 1490 1495 1493 1488 1480 1475 1473 1473 1474 1474 1474 1475 1475 1476
1335 1340 1344 1352 1360 1366 1370 1374 1379 1386 1392 1399 1408 1416 1422 1429 1433 1441 1455 1450 1432 1433 1440 1441 1445 1448 1452 1457 1460 1461 1461 1463 1464 1463 1467 1471 1472 1475 1477 1478 1478 1482 1487 1487 1489 1491 1486 1485 1490 1493 1496 1497 1501 1507 1512 1516 1520 1522 1523 1521 1522 1523 1522 1526 1527 1529 1538 1535 1521 1517 1518 1525 1516 1489 1479 1483 1482 1477 1474 1471 1470 1469 1470 1470 1470 1471 1471 1472
1333 1337 1342 1350 1357 1361 1365 1372 1379 1385 1390 1398 1407 1413 1420 1427 1431 1440 1449 1437 1426 1433 1437 1439 1443 1444 1449 1453 1455 1458 1460 1461 1463 1464 1466 1467 1471 1475 1476 1480 1481 1483 1489 1491 1492 1492 1489 1489 1491 1491 1493 1496 1502 1508 1510 1514 1518 1521 1522 1520 1523 1528 1528 1530 1532 1534 1537 1525 1512 1509 1511 1521 1516 1488 1472 1471 1470 1470 1471 1468 1466 1466 1466 1466 1467 1467 1468 1469
1331 1335 1341 1348 1355 1358 1361 1367 1373 1381 1389 1396 1405 1412 1417 1428 1434 1434 1435 1430 1426 1431 1433 1436 1439 1441 1446 1449 1449 1454 1456 1458 1460 1462 1462 1463 1467 1469 1469 1472 1476 1479 1486 1491 1493 1493 1491 1489 1489 1490 1492 1493 1501 1509 1514 1517 1519 1520 1520 1521 1526 1531 1531 1531 1532 1531 1526 1517 1512 1511 1511 1513 1501 1479 1471 1469 1466 1468 1468 1466 1465 1465 1465 1464 1464 1464 1464 1466
1328 1334 1341 1348 1352 1357 1361 1365 1370 1378 1386 1393 1403 1411 1415 1426 1430 1423 1424 1427 1422 1421 1426 1431 1433 1436 1441 1444 1446 1450 1454 1456 1457 1459 1461 1461 1463 1465 1464 1463 1463 1465 1471 1479 1486 1490 1492 1492 1490 1490 1491 1492 1496 1504 1512 1516 1517 1517 1516 1517 1521 1524 1527 1527 1525 1524 1518 1515 1516 1515 1515 1510 1491 1473 1466 1464 1463 1464 1463 1464 1464 1462 1463 1463 1463 1463 1463 1463
1327 1333 1341 1347 1351 1356 1360 1364 1368 1375 1384 1391 1401 1409 1416 1423 1420 1415 1420 1422 1417 1417 1421 1426 1431 1435 1438 1439 1440 1444 1451 1454 1454 1456 1460 1462 1462 1462 1463 1464 1461 1460 1465 1474 1480 1482 1485 1486 1484 1484 1484 1487 1491 1494 1498 1503 1508 1508 1506 1509 1510 1508 1511 1512 1511 1511 1512 1514 1518 1520 1513 1499 1483 1470 1461 1460 1461 1461 1461 1461 1461 1460 1460 1461 1461 1461 1461 1461
1328 1335 1341 1346 1350 1354 1359 1363 1367 1373 1381 1390 1399 1407 1413 1414 1410 1412 1415 1415 1417 1419 1420 1423 1429 1436 1439 1437 1437 1439 1443 1447 1449 1453 1456 1458 1459 1457 1458 1461 1461 1459 1463 1474 1478 1478 1480 1476 1472 1474 1475 1478 1484 1487 1489 1497 1505 1505 1503 1506 1504 1497 1496 1502 1506 1504 1506 1511 1515 1517 1502 1477 1468 1463 1456 1460 1461 1459 1460 1458 1458 1459 1457 1458 1459 1457 1458 1458
1328 1335 1340 1342 1347 1352 1358 1364 1368 1372 1378 1387 1399 1404 1403 1398 1398 1403 1405 1406 1413 1415 1418 1424 1428 1433 1438 1437 1437 1438 1440 1442 1448 1453 1452 1452 1455 1455 1453 1453 1454 1455 1454 1461 1468 1473 1478 1473 1468 1473 1477 1476 1478 1481 1485 1492 1498 1501 1502 1501 1497 1492 1490 1499 1509 1508 1509 1508 1500 1501 1492 1474 1471 1464 1451 1454 1456 1453 1455 1454 1454 1456 1455 1456 1456 1453 1454 1455
1325 1331 1336 1339 1344 1350 1357 1363 1367 1373 1379 1386 1394 1396 1393 1391 1393 1396 1398 1403 1409 1409 1414 1422 1423 1426 1432 1434 1434 1436 1439 1443 1447 1451 1452 1451 1450 1451 1453 1451 1449 1450 1447 1449 1458 1461 1465 1469 1467 1469 1474 1474 1474 1478 1483 1483 1486 1493 1497 1492 1491 1496 1494 1495 1503 1507 1511 1506 1490 1487 1485 1476 1479 1468 1449 1449 1453 1448 1447 1448 1450 1453 1453 1453 1452 1451 1452 1452
1323 1329 1335 1338 1343 1349 1356 1363 1366 1371 1380 1387 1391 1389 1389 1392 1394 1395 1397 1402 1405 1407 1412 1417 1417 1419 1423 1427 1427 1430 1436 1440 1444 1447 1448 1448 1445 1442 1449 1453 1448 1448 1447 1448 1455 1457 1457 1468 1474 1469 1468 1472 1474 1480 1485 1484 1484 1488 1488 1483 1486 1497 1499 1497 1500 1500 1503 1501 1485 1480 1481 1474 1470 1462 1450 1448 1449 1446 1445 1445 1447 1449 1450 1450 1450 1450 1450 1451
1322 1327 1334 1338 1343 1349 1355 1362 1367 1372 1380 1386 1388 1388 1389 1393 1394 1393 1396 1400 1403 1406 1410 1412 1414 1417 1419 1419 1419 1424 1429 1431 1436 1441 1441 1442 1439 1432 1438 1448 1447 1447 1448 1448 1452 1454 1455 1465 1474 1471 1469 1474 1477 1479 1482 1484 1486 1488 1486 1483 1483 1486 1487 1488 1488 1486 1490 1492 1481 1477 1479 1467 1453 1451 1449 1445 1442 1443 1444 1444 1445 1445 1445 1447 1448 1448 1449 1449
1319 1325 1332 1336 1341 1349 1355 1362 1367 1373 1379 1380 1381 1384 1387 1390 1393 1394 1395 1398 1401 1404 1406 1408 1411 1415 1417 1415 1415 1419 1424 1424 1428 1433 1433 1432 1433 1430 1430 1438 1444 1445 1446 1449 1450 1452 1454 1459 1467 1472 1472 1474 1474 1473 1471 1472 1478 1483 1484 1484 1484 1484 1481 1481 1480 1476 1480 1484 1478 1475 1470 1452 1438 1440 1441 1438 1438 1440 1440 1441 1443 1443 1443 1445 1446 1446 1447 1447
1317 1323 1330 1335 1341 1348 1355 1362 1368 1372 1376 1377 1379 1383 1386 1388 1392 1395 1395 1397 1399 1402 1403 1405 1409 1411 1413 1414 1413 1415 1420 1423 1424 1428 1429 1427 1427 1428 1426 1428 1436 1441 1445 1450 1449 1448 1451 1454 1461 1470 1471 1468 1465 1460 1458 1458 1462 1468 1472 1472 1474 1476 1478 1483 1483 1475 1474 1475 1471 1472 1465 1444 1433 1434 1432 1433 1436 1436 1436 1438 1439 1441 1443 1444 1444 1445 1445 1445
1315 1322 1328 1334 1341 1347 1353 1361 1368 1372 1375 1376 1377 1381 1384 1386 1389 1393 1395 1397 1399 1402 1403 1405 1407 1409 1410 1411 1411 1412 1415 1419 1420 1423 1425 1423 1421 1422 1422 1421 1426 1434 1441 1444 1442 1442 1445 1449 1457 1465 1464 1461 1459 1457 1457 1458 1458 1463 1467 1466 1466 1469 1471 1478 1479 1471 1472 1473 1468 1473 1469 1444 1430 1430 1431 1433 1434 1433 1435 1436 1437 1440 1442 1442 1442 1443 1443 1442
1315 1322 1329 1335 1340 1344 1351 1361 1369 1373 1374 1374 1376 1380 1383 1384 1387 1392 1394 1396 1399 1402 1403 1404 1407 1409 1409 1409 1409 1411 1413 1415 1417 1417 1418 1419 1417 1416 1419 1422 1423 1430 1437 1439 1440 1443 1445 1446 1455 1463 1463 1461 1461 1460 1459 1460 1460 1466 1469 1466 1466 1465 1461 1462 1463 1462 1467 1468 1467 1476 1471 1444 1429 1431 1432 1432 1433 1434 1434 1435 1437 1439 1439 1440 1441 1441 1441 1440
1315 1323 1331 1338 1342 1344 1348 1355 1362 1368 1372 1373 1377 1382 1383 1384 1386 1388 1391 1394 1397 1400 1400 1402 1406 1407 1407 1409 1408 1407 1411 1414 1415 1414 1413 1415 1416 1416 1418 1421 1423 1427 1431 1433 1435 1438 1439 1439 1447 1458 1462 1463 1464 1464 1463 1463 1462 1463 1462 1461 1462 1460 1459 1462 1462 1463 1464 1459 1460 1469 1460 1438 1431 1433 1433 1434 1435 1435 1434 1434 1437 1438 1437 1439 1439 1439 1439 1438
1316 1325 1333 1339 1344 1346 1347 1349 1352 1359 1367 1372 1376 1380 1382 1384 1386 1386 1388 1392 1395 1397 1398 1400 1403 1404 1407 1410 1408 1405 1407 1409 1411 1411 1412 1413 1415 1416 1417 1419 1422 1424 1425 1427 1428 1430 1433 1432 1434 1443 1448 1449 1449 1446 1445 1449 1453 1453 1452 1454 1455 1455 1457 1459 1460 1465 1463 1453 1454 1458 1446 1434 1434 1434 1432 1435 1436 1435 1434 1436 1437 1437 1436 1437 1437 1438 1437 1436
1312 1322 1331 1339 1345 1348 1349 1350 1353 1358 1364 1370 1375 1379 1381 1384 1386 1387 1389 1393 1396 1396 1398 1401 1402 1404 1407 1410 1410 1409 1407 1406 1409 1410 1410 1412 1413 1414 1415 1418 1421 1422 1424 1428 1429 1432 1435 1430 1426 1428 1428 1427 1427 1425 1424 1429 1439 1444 1444 1446 1448 1447 1449 1452 1456 1459 1453 1448 1449 1443 1434 1435 1437 1434 1432 1433 1434 1435 1434 1434 1435 1435 1434 1435 1435 1436 1435 1435
1310 1316 1323 1332 1341 1348 1351 1352 1354 1357 1361 1365 1370 1374 1378 1381 1385 1389 1390 1392 1394 1395 1398 1402 1402 1402 1404 1407 1410 1412 1408 1406 1409 1409 1408 1410 1412 1414 1415 1416 1418 1421 1424 1428 1430 1433 1436 1432 1426 1423 1421 1420 1423 1423 1422 1425 1430 1433 1434 1437 1440 1442 1446 1451 1453 1446 1441 1449 1450 1433 1428 1436 1434 1430 1432 1431 1431 1433 1432 1431 1432 1431 1431 1432 1433 1433 1433 1433
1312 1316 1320 1323 1330 1340 1345 1347 1350 1353 1357 1361 1365 1369 1375 1379 1383 1386 1389 1391 1393 1393 1396 1401 1402 1399 1399 1401 1405 1410 1411 1409 1409 1408 1407 1408 1411 1415 1416 1417 1418 1420 1424 1428 1429 1431 1434 1432 1427 1425 1422 1421 1424 1424 1421 1424 1426 1426 1428 1432 1435 1441 1445 1446 1444 1435 1435 1447 1442 1423 1426 1434 1425 1423 1427 1427 1428 1429 1427 1428 1428 1427 1428 1428 1429 1431 1431 1431
1312 1317 1323 1325 1327 1332 1339 1344 1350 1355 1358 1362 1365 1368 1372 1376 1379 1381 1385 1390 1393 1392 1391 1395 1398 1397 1396 1397 1399 1405 1410 1409 1406 1406 1406 1406 1409 1412 1415 1418 1418 1420 1424 1426 1426 1427 1430 1428 1425 1427 1426 1423 1425 1425 1422 1422 1425 1426 1429 1431 1433 1438 1440 1438 1436 1430 1433 1440 1429 1419 1427 1427 1416 1417 1422 1422 1426 1427 1427 1428 1427 1427 1428 1426 1426 1429 1429 1429
1312 1315 1320 1326 1330 1334 1340 1347 1353 1357 1361 1364 1366 1368 1370 1372 1375 1377 1380 1384 1388 1389 1388 1387 1390 1393 1395 1396 1396 1397 1401 1403 1403 1404 1404 1404 1405 1407 1409 1412 1414 1419 1424 1425 1424 1425 1426 1423 1421 1427 1431 1428 1426 1426 1424 1422 1423 1426 1429 1430 1433 1438 1440 1439 1435 1430 1436 1438 1424 1420 1428 1421 1410 1414 1420 1422 1426 1426 1426 1427 1425 1425 1427 1426 1426 1426 1426 1428
1313 1315 1318 1323 1331 1338 1343 1348 1352 1356 1360 1363 1362 1363 1366 1369 1371 1374 1378 1379 1380 1382 1383 1383 1387 1392 1394 1395 1394 1392 1393 1397 1401 1403 1402 1401 1401 1401 1403 1405 1408 1415 1423 1425 1425 1424 1423 1422 1421 1427 1433 1428 1423 1424 1426 1424 1424 1426 1427 1428 1433 1437 1436 1433 1426 1423 1429 1430 1423 1424 1428 1417 1409 1414 1419 1421 1423 1424 1424 1423 1422 1423 1424 1424 1424 1424 1426 1428
1314 1318 1321 1324 1331 1339 1343 1347 1353 1355 1355 1355 1356 1358 1361 1364 1368 1373 1378 1380 1380 1381 1383 1384 1388 1392 1394 1394 1391 1389 1392 1395 1397 1399 1401 1401 1400 1398 1399 1401 1403 1409 1416 1422 1425 1425 1424 1423 1422 1426 1429 1422 1416 1420 1426 1429 1432 1429 1421 1419 1422 1423 1422 1420 1416 1415 1419 1421 1420 1422 1417 1408 1408 1413 1416 1418 1420 1421 1420 1419 1420 1422 1422 1422 1423 1424 1426 1428